Погода в Баальбеке

Ливан     34°00′26″N   36°13′01″E
темп.,
°C
ветер,
м/с
пор.,
м/с
влажн.,
%
обл.,
%
осадки,
мм/ч
давл.,
гПа
погр.,
м
24 сентября, пт
пт2400:00+12юз588415 0.0 1010298
03:00+11ююз378542 0.1 1010245
06:00+12юз587999 0.2 1010809
09:00+14юз576437 0.4 10111101
12:00+17юз77440 0.0 10111297
15:00+18юз65421 0.0 10101309
18:00+15зюз44573 0.0 1012774
21:00+12ююв12750 0.0 101533
25 сентября, сб
сб2500:00+11в11800 0.0 101611
03:00+9в11830 0.0 101610
06:00+8ю11810 0.0 101710
09:00+14з11540 0.0 1018485
12:00+18зсз21340 0.0 10171101
15:00+21сз32270 0.0 10151313
18:00+19ссв45340 0.0 1016248
21:00+15в23480 0.0 101832
26 сентября, вс
вс2600:00+13вюв11510 0.0 101811
03:00+12в11510 0.0 101810
06:00+11юв11510 0.0 101811
09:00+18зюз11310 0.0 1018334
12:00+22з33190 0.0 10171069
15:00+24зсз22130 0.0 10151603
18:00+21ссв34235 0.0 101565
21:00+17вюв223120 0.0 101613
27 сентября, пн
пн2700:00+16ююв1233100 0.0 101511
03:00+16ю23345 0.0 101412
06:00+16ююз33360 0.0 101412
09:00+22зюз46270 0.0 1013767
12:00+25юз67240 0.0 10121826
15:00+26зюз77230 0.0 10102479
18:00+23зюз45320 0.0 101091
21:00+17ю34530 0.0 101248
28 сентября, вт
вт2800:00+16ююз35590 0.0 101256
03:00+14ююз34620 0.0 101236
06:00+13ююз22670 0.0 101215
09:00+18юз33400 0.0 1013381
12:00+22зюз44250 0.0 10111327
15:00+24зюз54231 0.0 10101913
18:00+20з22490 0.0 1012220
21:00+15вюв01710 0.0 101413